Location: Newark
(3.8581°S, 32.4250°W)
Time: 22:52:17
(UTC+00:00)

ISS - Visible Passes

Search period start: 19 September 2019 00:00
Search period end: 29 September 2019 00:00
Orbit: 411 x 421 km, 51.6° (Epoch: 20 September)

Date Brightness Start Highest point End Pass type
(mag) Time Alt. Az. Time Alt. Az. Time Alt. Az.
19 Sep -1.2 06:45:41 10° N 06:48:17 21° NE 06:50:53 10° ESE visible
20 Sep -2.7 07:33:28 10° WNW 07:36:22 27° SW 07:39:18 10° S visible
21 Sep -3.9 06:47:46 67° W 06:47:56 69° SW 06:51:16 10° SSE visible
22 Sep -0.5 06:02:28 12° SE 06:02:28 12° SE 06:02:43 10° SE visible
